Погода в Кагуасе

Пуэрто-Рико     18°14′03″N   66°02′09″W
темп.,
°C
ветер,
м/с
пор.,
м/с
влажн.,
%
обл.,
%
осадки,
мм/ч
давл.,
гПа
погр.,
м
9 августа, вт
вт923:00+23в129211 0.0 101676
02:00+22вюв12945 0.1 101564
05:00+22юв11916 0.1 101617
08:00+26в277031 0.1 1017648
11:00+30всв575158 0.0 10171539
14:00+31всв6654100 0.0 10161656
17:00+28св566897 0.1 10151113
20:00+24в129110 0.3 101774
10 августа, ср
ср1023:00+23вюв129494 0.2 101753
02:00+23вюв1194100 0.4 101633
05:00+23вюв1491100 0.2 1016214
08:00+26в3575100 0.3 1017708
11:00+30в455638 0.0 10171436
14:00+30вюв5553100 0.1 10161474
17:00+28в556395 0.1 10161219
20:00+23вюв2290100 0.1 101755
11 августа, чт
чт1123:00+23юв129273 0.1 101734
02:00+22юв1292100 0.1 101625
05:00+22юв1193100 0.1 101515
08:00+25в2581100 0.3 1016549
11:00+29вюв576340 0.4 10161282
14:00+29вюв566681 2.1 10161189
17:00+28вюв466993 0.3 10151050
20:00+23вюв229186 0.4 101648
12 августа, пт
пт1223:00+23вюв1292100 0.2 101746
02:00+23вюв229399 0.4 101539
05:00+22вюв229440 0.2 101541
08:00+26вюв368089 0.3 1016667
11:00+30вюв565721 0.1 10171424
14:00+30вюв556032 0.3 10151396
17:00+28в45625 0.1 10141099
20:00+23вюв22905 0.1 101648
13 августа, сб
сб1323:00+22юв119218 0.0 101728
02:00+21ю019335 0.0 101513
05:00+23ссв1187100 0.0 101555
08:00+25в148151 0.1 1016281
11:00+30в5661100 0.6 10161363
14:00+31вюв565325 0.7 10151592
17:00+28вюв566264 0.0 10141194
20:00+23в129140 0.1 101551